Terminal Aerodrome Forecast
Issued by NWS Des Moines, IA

Home | Current Version | Previous Version | Text Only | Print | Product List | Glossary On
Versions: 1 2 3 4 5 6 7 8 9 10 11 12 13 14 15 16 17 18 19 20 21 22 23 24 25 26 27 28 29 30 31 32 33 34 35 36 37 38 39 40 41 42 43
000
FTUS43 KDMX 300803 AAB
TAFDSM
TAF AMD
KDSM 300803Z 3008/3106 20004KT 6SM BR SCT012 OVC050
      TEMPO 3008/3010 BKN015
     FM301000 28006KT 2SM BR SCT003 BKN010
     FM301400 29008KT 5SM BR SCT010
     FM301500 28008KT P6SM SCT025
     FM310000 24004KT P6SM SCT100=

USA.gov is the U.S. government's official web portal to all federal, state and local government web resources and services.